Location: Melque
(41.0517°N, 4.4694°W)
Time: 06:03:20
(UTC+00:00)

SKYMED 2 - Pass Details

Date: 15 March 2026
Orbit: 622 x 624 km, 97.9° (Epoch: 14 April)

Event Time Altitude Azimuth Distance (km) Brightness Sun altitude
Rises 19:33:33 0° 355° (N) 2,912 7.2 -13.8°
Reaches altitude 10° 19:36:21 10° 336° (NNW) 2,000 6.6 -14.3°
Maximum altitude 19:39:10 17° 295° (WNW) 1,573 6.7 -14.8°
Drops below altitude 10° 19:41:59 10° 254° (WSW) 1,990 7.2 -15.4°
Sets 19:44:47 0° 235° (SW) 2,891 7.7 -15.9°
